Volver al catálogo

STARLINK-2123

ActivoComunicacionesVLEO
NORAD 47401·PAYLOAD·🇺🇸 United States

Lanzado Jan 20, 2021 desde Cape Canaveral Space Force Station

Loading…

Próximos Pases (próximas 24 horas)

TLE

ActualizadoSource: CelesTrak SupGP

Época: Sep 15, 2026, 02:41 UTC

1 47401C 21005BE  26258.11229167 -.00021242  00000+0 -68321-3 0  2589
2 47401  53.1588 235.4307 0001433  96.0792 172.3528 15.31706381    10

Sigue STARLINK-2123 en tiempo real con AllMySat

Download on the App Store